Weather in Tomarovka

Russia / Belgorod Oblast     50°40′56″N   36°14′06″E
temp.,
°C
wind,
m/s
gust,
m/s
humid.,
%
clouds,
%
prec.,
mm/h
press.,
hPa
HPBL,
m
21 january, fri
fri2100:00−5s71594100 0.4 1009472
03:00−4s61495100 0.8 1006483
06:00−3ssw51297100 2.1 1003654
09:00−3sw5119595 2.8 1004472
12:00−3wsw61092100 0.2 1004916
15:00−4sw7139197 0.3 1005785
18:00−5sw8159199 0.1 1005667
21:00−5sw8159297 0.3 1005657
22 january, sat
sat2200:00−5sw7139499 0.2 1006676
03:00−6sw71393100 0.3 1007469
06:00−7ssw6129496 0.1 1007388
09:00−7ssw5119586 0.3 1008341
12:00−5ssw5894100 0.1 1010406
15:00−4sw4690100 0.3 1010565
18:00−6s369796 0.2 1012110
21:00−10sw249878 0.3 101452
23 january, sun
sun2300:00−14s22100100 0.0 101618
03:00−16sse22100100 0.1 101810
06:00−17ese22100100 0.1 101916
09:00−12ese34100100 0.1 102196
12:00−7ene3496100 0.1 1022244
15:00−6ne4894100 0.1 1022341
18:00−8ne51193100 0.0 1024303
21:00−8nne61392100 0.0 1024361
24 january, mon
mon2400:00−7nne71693100 0.1 1023520
03:00−7nne71493100 0.7 1022452
06:00−5ne71495100 0.4 1022510
09:00−5ene6119397 0.8 1024434
12:00−5ne6993100 0.3 1025411
15:00−5ene5993100 0.3 1025410
18:00−7ne5995100 0.0 1025270
21:00−8ne4896100 0.1 1026223
25 january, tue
tue2500:00−8ne3796100 0.1 1025195
03:00−9ne369686 0.3 1024160
06:00−10ene359692 0.1 1024109
09:00−9e2596100 0.3 1024126
12:00−6se239499 0.1 1023215
15:00−5sse2393100 0.1 1021356
18:00−8sse229895 0.1 102216
21:00−6s3697100 0.2 1022237